Location: Newark
(13.0000°N, 105.0000°E)
Time: 05:34:06
(UTC+00:00)

N. Korean satellite - Visible Passes

Search period start: 24 October 2019 00:00
Search period end: 03 November 2019 00:00
Orbit: 455 x 508 km, 97.2° (Epoch: 23 October)

Date Brightness Start Highest point End Pass type
(mag) Time Alt. Az. Time Alt. Az. Time Alt. Az.
24 Oct 9.3 22:07:17 10° NE 22:10:23 25° E 22:13:30 10° SSE visible
25 Oct 10.6 21:44:21 10° E 21:45:05 10° E 21:45:49 10° ESE visible
26 Oct 10.0 11:10:20 10° SW 11:12:24 15° W 11:14:29 10° WNW visible
27 Oct 7.8 22:24:13 10° NNE 22:27:49 50° E 22:31:24 10° S visible
28 Oct 9.7 21:59:47 10° NE 22:02:31 20° E 22:05:16 10° SSE visible
30 Oct 9.7 11:01:53 10° SSW 11:04:28 20° W 11:07:05 10° NW visible
31 Oct 8.5 22:16:29 10° NNE 22:19:55 37° E 22:23:21 10° SSE visible
01 Nov 10.1 21:52:24 10° ENE 21:54:37 15° E 21:56:48 10° SE visible
02 Nov 10.5 11:21:03 10° WSW 11:21:51 11° W 11:22:38 10° W visible
